STARLINK-1640, 46173

Orbit data source: Space-Track

STARLINK-1640, 46173 is a payload satellite owned by SpaceX/Seattle (US) in LEO that was launched on Tue, 18 Aug 2020 UTC via an FALCON 9 launch vehicle from the Air Force Eastern Test Range (AFETR). Payload-class satellites include a variety of spacecraft equipped with specific instruments for various scientific and technological missions. These include communications satellites like Starlink; space stations such as the ISS; scientific satellites like the Hubble; Earth observation satellites from companies like Planet Labs, Umbra, and HawkEye 360; GPS; miniature CubeSats for education and research; and military/defense satellites.

Loading next visibility...
Identifier
46173, 2020-057BJ
Orbit
LEO
Country
Flag of USUS
Related business
Manufacturer
SpaceX/Seattle
Mission
Partially operational Commercial Communications
Bus & Motor
STARLINK, Unknown motor
Mass
260 kg wet, ~248 kg dry
Launch date (UTC)
2020-08-18 (6 years ago)
Launch vehicle
FALCON 9
Launch site
Air Force Eastern Test Range (AFETR)
Object type
Payload
Rocket body
Debris
Shape & HBR
Box + 1 Pan, 10.1 m
Radar Cross Section
13.562 m², Large (>1 m²)

Expand to show TLE details & history
Last TLE update: 10 hours ago

TLE from 10 hours ago
0 STARLINK-1640
1 46173U 20057BJ  26072.56920980  .00134125  00000-0  19539-2 0  9996
2 46173  53.0508 280.3604 0007559 158.1920 201.9413 15.54765272306912
Epoch: 2026-03-13T13:39Z
TLE epoch observation values (Epoch: 2026-03-13T13:39:39.726Z)
Latitude
-0.00005°
Longitude
-95.75802°
Altitude
408.487 km
Speed
7.664 km/s
True Right ascension
18h 41m 26s
True Declination
0° 00' 00"
Sunlit
Object was in daylight at epoch
Visualization orbit readout
Latitude
Unknown
Longitude
Unknown
Altitude
Unknown
Speed
Unknown
Apparent Right ascension
Unknown
Apparent Declination
Unknown
Sunlit
N/A
Visualization observer readout
Local Sidereal Time
03:36:02
Azimuth
Unknown
Elevation
Unknown
Doppler factor
Unknown
Orbital elements
Apogee altitude
408.238 km
Perigee altitude
397.986 km
Semi-major axis
6,781.249 km
Eccentricity
0.00076
Inclination
53.0508°
RAAN
280.3604°
Arg. of periapsis
158.192°
True anomaly
201.90896°
Mean anomaly
201.9413°
Eccentric anomaly
201.92513°
Mean motion
3.88668 °/min
Orbital period
92.62 mins
BSTAR
0.0019539
Loading maneuver chart data...
Computing Atmospheric mass density...
Loading historical data...
Loading historical data...
Loading historical data...
Loading historical data...
Loading historical data...
Loading historical data...
Loading historical data...

Documentation

Showing up to 5 results
|